STARLINK-30324, 57640

Orbit data source: Space-Track

STARLINK-30324, 57640 is a payload satellite owned by SpaceX/Seattle (US) in LEO that was launched on Thu, 17 Aug 2023 UTC via an FALCON 9 launch vehicle from the Air Force Eastern Test Range (AFETR). Payload-class satellites include a variety of spacecraft equipped with specific instruments for various scientific and technological missions. These include communications satellites like Starlink; space stations such as the ISS; scientific satellites like the Hubble; Earth observation satellites from companies like Planet Labs, Umbra, and HawkEye 360; GPS; miniature CubeSats for education and research; and military/defense satellites.

Loading next visibility...
Identifier
57640, 2023-122J
Orbit
LEO
Country
Flag of USUS
Related business
Manufacturer
SpaceX/Seattle
Mission
Operational Commercial Communications
Bus & Motor
STARLINK V2M, Unknown motor
Mass
730 kg wet, ~700 kg dry
Launch date (UTC)
2023-08-17 (2 years ago)
Launch vehicle
FALCON 9
Launch site
Air Force Eastern Test Range (AFETR)
Object type
Payload
Rocket body
Debris
Shape & HBR
Box + 2 Pan, 14.5 m
Radar Cross Section
33.884 m², Large (>1 m²)

Expand to show TLE details & history
Last TLE update: 6 hours ago

TLE from 6 hours ago
0 STARLINK-30324
1 57640U 23122J   25243.51613961  .00000616  00000-0  60645-4 0  9998
2 57640  43.0033  48.0826 0001236 269.4854  90.5847 15.02533121113578
Epoch: 2025-08-31T12:23Z
TLE epoch observation values (Epoch: 2025-08-31T12:23:14.462Z)
Latitude
0.00001°
Longitude
-117.66261°
Altitude
558.876 km
Speed
7.584 km/s
True Right ascension
03h 12m 19s
True Declination
0° 00' 00"
Sunlit
Object was in daylight at epoch
Visualization orbit readout
Latitude
Unknown
Longitude
Unknown
Altitude
Unknown
Speed
Unknown
Apparent Right ascension
Unknown
Apparent Declination
Unknown
Sunlit
N/A
Visualization observer readout
Local Sidereal Time
10:22:41
Azimuth
Unknown
Elevation
Unknown
Doppler factor
Unknown
Orbital elements
Apogee altitude
561.869 km
Perigee altitude
560.154 km
Semi-major axis
6,939.149 km
Eccentricity
0.00012
Inclination
43.0033°
RAAN
48.0826°
Arg. of periapsis
269.4854°
True anomaly
90.59886°
Mean anomaly
90.5847°
Eccentric anomaly
90.59178°
Mean motion
3.75477 °/min
Orbital period
95.88 mins
BSTAR
0.000060645
Loading maneuver chart data...
Computing Atmospheric mass density...
Loading historical data...
Loading historical data...
Loading historical data...
Loading historical data...
Loading historical data...
Loading historical data...
Loading historical data...

Documentation

Showing up to 5 results
|